Observations for PANTELLERIA IT-AFB, Italy (LICG)

LICG 201755Z 25001KT 9999 FEW025 11/08 Q1023
LICG 201755Z 25001KT 9999 FEW025 11/08 Q1023 RMK FEW VIS MIN 9999 WIND THR08 31002KT WIND THR21 18002KT BLU
LICG 201655Z 33003KT 9999 FEW025 12/10 Q1022
LICG 201655Z 33003KT 9999 FEW025 12/10 Q1022 RMK FEW VIS MIN 9999 WIND THR08 31002KT WIND THR21 29002KT BLU
LICG 201555Z 03002KT 9999 FEW025 12/10 Q1022
LICG 201555Z 03002KT 9999 FEW025 12/10 Q1022 RMK FEW VIS MIN 9999 WIND THR08 36003KT WIND THR21 35002KT BLU
LICG 201455Z 06001KT 9999 FEW020 SCT025 12/10 Q1022 
LICG 201455Z 06001KT 9999 FEW020 SCT025 12/10 Q1022 RMK SCT VIS MIN 9999 WIND THR08 10003KT WIND THR21 35001KT BLU
LICG 201355Z 34004KT 9999 FEW020 SCT025 12/10 Q1022 
LICG 201355Z 34004KT 9999 FEW020 SCT025 12/10 Q1022 RMK BKN VIS MIN 9999 WIND THR08 01002KT WIND THR21 36004KT BLU
LICG 201255Z 34004KT 9999 FEW020 SCT025 12/10 Q1022 
LICG 201255Z 34004KT 9999 FEW020 SCT025 12/10 Q1022 RMK SCT VIS MIN 9999 WIND THR08 29002KT WIND THR21 27003KT BLU
LICG 201155Z 04002KT 9999 FEW025 13/10 Q1023
LICG 201155Z 04002KT 9999 FEW025 13/10 Q1023 RMK FEW VIS MIN 9999 WIND THR08 08002KT WIND THR21 29002KT BLU
LICG 201055Z 03005KT 9999 FEW025 13/10 Q1023
LICG 201055Z 03005KT 9999 FEW025 13/10 Q1023 RMK FEW VIS MIN 9999 WIND THR08 36004KT WIND THR21 36004KT BLU
LICG 200955Z 06007KT 9999 FEW020 13/11 Q1023
LICG 200955Z 06007KT 9999 FEW020 13/11 Q1023 RMK FEW VIS MIN 9999 WIND THR08 03004KT WIND THR21 03004KT BLU
LICG 200955Z 06007KT 9999 FEW020 13/11 Q1022 RMK FEW VIS MIN 9999 WIND THR08 03004KT WIND THR21 03004KT BLU
LICG 200855Z 03005KT CAVOK 13/10 Q1022  
LICG 200855Z 03005KT CAVOK 13/10 Q1022 RMK SKC VIS MIN 9999 WIND THR08 03005KT WIND THR21 01004KT BLU
LICG 200755Z 10003KT CAVOK 12/09 Q1022  
LICG 200755Z 10003KT CAVOK 12/09 Q1022 RMK FEW FEW200 VIS MIN 9999 WIND THR08 03004KT WIND THR21 03003KT BLU
LICG 200655Z 11002KT CAVOK 09/06 Q1022  
LICG 200655Z 11002KT CAVOK 09/06 Q1022 RMK FEW FEW200 VIS MIN 9999 WIND THR08 11001KT WIND THR21 03001KT BLU
LICG 200555Z 21005KT CAVOK 08/06 Q1021  
LICG 200555Z 21005KT CAVOK 08/06 Q1021 RMK FEW FEW200 VIS MIN 9999 WIND THR08 18003KT WIND THR21 18003KT BLU